Location: Fordham
(51.9167°N, 0.8000°E)
Time: 21:04:22
(UTC+00:00)

Daily predictions for brighter satellites

Satellite Brightness Start Highest point End
(mag) Time Altitude Azimuth Time Altitude Azimuth Time Altitude Azimuth
Cosmos 2219 4.3 16:22:37 10° NNW 16:27:13 24° NE 16:31:48 10° E
Thor Agena Rocket 3.8 16:23:21 10° SE 16:28:20 49° ENE 16:33:18 10° N
CENTAUR R/B 2.8 16:22:52 10° WSW 16:28:42 70° NW 16:36:11 10° NE
USA 290 2.2 16:28:40 10° NNW 16:31:56 65° ENE 16:35:09 10° SE
Cosmos 1484 Rocket 2.4 16:29:21 10° SSE 16:32:50 67° ENE 16:36:20 10° N
SL-16 R/B 2.7 16:26:58 10° NNE 16:33:08 57° ESE 16:39:12 10° S
Cosmos 1544 Rocket 3.9 16:29:03 10° SSE 16:33:16 48° E 16:37:33 10° NNE
Cosmos 1844 Rocket 4.4 16:30:43 10° NNW 16:33:50 15° NNE 16:36:55 10° NE
Lacrosse 5 rocket 1.4 16:30:20 10° W 16:34:02 56° NNW 16:37:40 10° ENE
Cosmos 1980 Rocket 4.0 16:33:46 10° ESE 16:35:31 11° E 16:37:17 10° ENE
Iridium 51 3.7 16:35:33 10° S 16:38:42 87° E 16:41:56 10° N
BREEZE M DEB (TANK) 4.2 16:38:01 10° S 16:39:16 13° SSE 16:40:21 10° SE
Lacrosse 4 Rocket 2.5 16:35:32 10° WSW 16:39:18 36° NW 16:43:02 10° NNE
Meteor 1-27 4.4 16:35:50 10° SSW 16:41:38 83° WNW 16:47:26 10° NNE
CORIOLIS 4.2 16:37:20 10° SE 16:42:33 57° ENE 16:47:47 10° N
Cosmos 2263 Rocket 2.8 16:37:26 10° NNW 16:42:36 34° NE 16:47:45 10° ESE
Cosmos 2228 3.1 16:39:49 10° SSW 16:44:04 81° WNW 16:48:20 10° N
Cosmos 1777 Rocket 4.5 16:39:27 10° S 16:44:22 43° ESE 16:49:19 10° NE
CZ-2D R/B 3.6 16:46:23 10° SE 16:49:09 28° ENE 16:51:56 10° N
Okean 1-7 Rocket 3.9 16:45:54 10° N 16:50:08 44° ENE 16:54:18 10° SE
Cosmos 1455 Rocket 4.4 16:47:16 10° SW 16:51:21 39° WNW 16:55:29 10° N
Cosmos 1602 Rocket 3.5 16:47:44 10° N 16:52:08 64° ENE 16:56:26 10° SSE
IRIDIUM 114 4.5 16:47:01 10° N 16:52:09 52° E 16:57:14 10° SSE
Cosmos 1461 3.3 16:51:55 10° SSW 16:55:34 39° ESE 16:58:30 15° ENE
Cosmos 1943 Rocket 4.3 16:55:56 10° NNW 16:57:18 11° N 16:58:39 10° N
Cosmos 1933 4.1 16:54:48 10° SSE 16:58:08 29° E 17:01:22 11° NNE
Cosmos 2227 Rocket 2.2 16:53:41 10° NNW 16:59:18 62° NE 17:04:54 10° SE
USA 215 3.5 16:53:50 12° ENE 16:59:53 59° N 17:06:19 10° W
Cosmos 1634 Rocket 4.3 16:54:22 10° SSW 17:00:32 70° WNW 17:06:43 10° N
IRS-1C 4.2 16:55:20 10° SE 17:00:32 58° ENE 17:05:46 10° N
IRIDIUM 103 4.3 16:56:09 10° N 17:01:21 62° E 17:06:31 10° SSE
YAOGAN 1 3.8 16:58:21 10° ESE 17:01:26 20° ENE 17:04:32 10° NNE
Cosmos 1743 2.3 16:59:27 10° NNW 17:02:43 80° W 17:05:56 10° S
NOSS 7 (H) 4.0 17:00:01 10° NW 17:02:57 90° WNW 17:06:03 10° SE
Cosmos 2369 Rocket 4.0 16:59:35 10° W 17:04:01 23° NW 17:08:31 10° NNE
Cosmos 1486 Rocket 4.0 16:58:51 10° SSW 17:04:02 75° ESE 17:09:18 10° NNE
SJ-12 3.9 17:01:38 10° SE 17:05:16 48° ENE 17:08:56 10° N
Cosmos 2151 2.8 17:02:04 10° N 17:06:15 84° E 17:10:25 10° SSE
Cosmos 2360 4.2 17:02:27 10° SSW 17:08:10 77° ESE 17:13:47 11° NNE
Cosmos 1655 Rocket 4.2 17:05:58 10° N 17:11:59 47° ENE 17:17:57 10° SE
Cosmos 2279 Rocket 4.1 17:05:53 10° SSW 17:12:06 80° W 17:18:23 10° N
Cosmos 1867 3.8 17:08:43 10° NW 17:14:11 77° SW 17:19:37 10° SSE
IGS 5A 4.1 17:10:26 10° S 17:14:19 55° W 17:18:15 10° NNW
Cosmos 1697 Rocket 3.0 17:09:42 10° S 17:15:00 45° ESE 17:19:15 16° NE
Cosmos 990 Rocket 4.4 17:10:43 10° S 17:15:27 40° ESE 17:19:09 16° NE
Cosmos 1953 Rocket 4.1 17:11:44 10° N 17:15:52 37° ENE 17:20:00 10° SE
Cosmos 2278 Rocket 4.3 17:15:28 10° NNW 17:16:59 11° N 17:18:29 10° N
MOS 1 Rocket 3.5 17:13:11 10° SSE 17:18:04 60° ENE 17:23:14 10° N
SAR-Lupe-4 3.4 17:15:07 10° SSE 17:18:39 72° ENE 17:22:12 10° N
IRIDIUM 106 4.3 17:14:26 10° N 17:19:43 85° E 17:24:56 10° S
NOSS 2-2 (D) 3.3 17:20:27 10° WSW 17:23:32 47° NW 17:25:11 22° NNE
Cosmos 1782 3.4 17:20:34 10° SSW 17:24:03 49° WNW 17:27:34 10° N
Cosmos 1825 Rocket 3.4 17:20:57 10° N 17:25:19 70° ENE 17:29:37 10° SSE
ARIANE 5 R/B 2.5 17:20:22 10° SSE 17:25:26 89° ENE 17:30:38 10° NNW
Resurs 01 Rocket 3.7 17:29:46 11° NNE 17:29:46 11° NNE 17:30:08 10° NNE
SAR-Lupe-1 4.0 17:25:55 10° SSE 17:29:31 83° ENE 17:33:09 10° NNW
Cosmos 1680 Rocket 4.5 17:26:28 10° N 17:30:46 25° NE 17:31:45 24° ENE
Cosmos 2098 Rocket 3.8 17:28:02 10° SSW 17:32:17 60° WNW 17:37:19 10° N
USA 81 4.4 17:27:59 10° N 17:33:00 42° ENE 17:37:58 10° SSE
Cosmos 1656 4.2 17:27:47 10° SW 17:33:21 60° NW 17:38:38 12° NNE
UNK 3.7 17:29:25 10° NNE 17:34:02 88° WNW 17:38:36 10° SSW
CZ-2D R/B 3.7 17:32:47 10° SE 17:36:45 43° ENE 17:40:41 10° N
NOSS 3-2 (A) 3.7 17:32:41 10° WSW 17:37:53 56° NW 17:42:25 19° NE
Gbstr 26 Del rocket 3.5 17:34:38 10° SW 17:38:22 37° SSE 17:39:37 28° ESE
NOSS 3-2 (C) 3.1 17:34:07 10° SW 17:39:16 83° SE 17:43:15 23° NE
IRAS Rocket 4.5 17:34:18 10° SE 17:39:27 43° ENE 17:44:37 10° N
SPOT 1/Viking Rocket 3.5 17:37:19 10° SSE 17:42:27 64° ENE 17:47:37 10° N
Cosmos 1076 Rocket 3.4 17:39:05 10° N 17:43:24 70° ENE 17:47:41 10° SSE
NOSS 2-2 (E) 3.7 17:41:02 10° WSW 17:44:01 39° NW 17:45:00 29° N
PSLV R/B 3.8 17:43:07 29° ESE 17:44:26 37° ENE 17:48:12 10° N
SMAP 4.0 17:40:03 10° S 17:44:34 49° W 17:49:07 10° NNW
[s.n.66845] 3.5 17:42:38 10° NNW 17:43:44 20° N 17:43:44 20° N
[s.n.66847] 3.5 17:43:06 10° NNW 17:44:11 20° N 17:44:11 20° N
Cosmos 2266 Rocket 4.4 17:39:49 10° NNW 17:45:55 64° W 17:51:52 10° S
[s.n.66846] 3.5 17:43:31 10° NNW 17:44:36 20° N 17:44:36 20° N
Cosmos 2082 3.9 17:40:58 10° NNW 17:46:33 50° NE 17:50:42 18° ESE
CZ-4C R/B 3.8 17:39:53 10° NW 17:46:38 54° SW 17:54:54 10° SSE
[s.n.66843] 3.5 17:44:04 10° NNW 17:45:08 20° N 17:45:08 20° N
[s.n.66844] 3.5 17:44:30 10° NNW 17:45:35 20° N 17:45:35 20° N
SJ-7 4.5 17:47:20 42° ENE 17:47:24 42° ENE 17:50:59 10° N
[s.n.66842] 3.5 17:45:02 10° NNW 17:46:06 20° NNW 17:46:06 20° NNW
COSMO-SKYMED 1 3.6 17:49:12 25° ESE 17:49:12 25° ESE 17:51:42 10° SSE
[s.n.66841] 3.5 17:45:30 10° NNW 17:46:33 20° NNW 17:46:33 20° NNW
SL-19 R/B 4.4 17:42:57 10° SE 17:48:11 51° ENE 17:53:43 10° N
[s.n.66840] 3.5 17:45:59 10° NNW 17:47:03 20° NNW 17:47:03 20° NNW
[s.n.66838] 3.5 17:46:29 10° NNW 17:47:32 20° NNW 17:47:32 20° NNW
Landsat 7 4.4 17:44:46 10° S 17:49:20 57° W 17:53:57 10° NNW
[s.n.66839] 3.5 17:46:59 10° NNW 17:48:01 20° NNW 17:48:01 20° NNW
IRS-P3 4.2 17:44:42 10° SSE 17:50:01 82° WSW 17:55:23 10° NNW
[s.n.66837] 3.5 17:47:26 10° NNW 17:48:28 20° NNW 17:48:28 20° NNW
SJ-6F 4.4 17:46:11 10° S 17:50:10 78° WSW 17:54:13 10° NNW
Cosmos 2058 Rocket 3.6 17:46:22 10° SSE 17:50:29 37° E 17:50:45 37° E
[s.n.66836] 3.6 17:47:56 10° NNW 17:48:58 20° NNW 17:48:58 20° NNW
[s.n.66835] 3.6 17:48:27 10° NNW 17:49:28 20° NNW 17:49:28 20° NNW
Cosmos 2297 Rocket 4.2 17:46:41 10° NW 17:51:35 31° WSW 17:56:27 10° SSW
[s.n.66834] 3.6 17:48:56 10° NNW 17:49:57 20° NNW 17:49:57 20° NNW
[s.n.66833] 3.6 17:49:23 10° NNW 17:50:23 19° NNW 17:50:23 19° NNW
[s.n.66832] 3.6 17:49:55 10° NNW 17:50:56 20° NNW 17:50:56 20° NNW
[s.n.66831] 3.6 17:50:21 10° NNW 17:51:20 19° NNW 17:51:20 19° NNW
[s.n.66830] 3.6 17:50:46 10° NNW 17:51:46 19° NNW 17:51:46 19° NNW
[s.n.66828] 3.6 17:51:12 10° NNW 17:52:12 19° NNW 17:52:12 19° NNW
[s.n.66829] 3.6 17:51:44 10° NNW 17:52:44 19° NNW 17:52:44 19° NNW
[s.n.66827] 3.6 17:52:16 10° NNW 17:53:15 19° NNW 17:53:15 19° NNW
[s.n.66826] 3.7 17:52:47 10° NNW 17:53:45 19° NNW 17:53:45 19° NNW
[s.n.66825] 3.7 17:53:13 10° NNW 17:54:11 19° NNW 17:54:11 19° NNW
[s.n.66824] 3.7 17:53:44 10° NNW 17:54:42 19° NNW 17:54:42 19° NNW
[s.n.66823] 3.7 17:54:15 10° NNW 17:55:13 19° NNW 17:55:13 19° NNW
[s.n.66822] 3.7 17:54:45 10° NNW 17:55:41 19° NNW 17:55:41 19° NNW
[s.n.66821] 3.7 17:55:13 10° NNW 17:56:10 19° NNW 17:56:10 19° NNW
Cosmos 1538 Rocket 3.9 17:53:43 10° NNW 17:59:01 88° ENE 18:04:22 10° SSE
Nadezhda 2 Rocket 4.5 17:55:04 10° N 18:01:04 53° ENE 18:07:01 10° SSE
Cosmos 1606 Rocket 3.8 17:57:10 10° SSW 18:01:33 70° WNW 18:05:40 12° N
Meteor 1-26 Rocket 4.3 17:59:16 10° SSE 18:04:21 45° E 18:05:35 39° ENE
Lacrosse 5 rocket 2.0 18:08:03 10° WNW 18:11:16 35° N 18:11:16 35° N
Cosmos 1553 Rocket 4.1 18:05:56 10° SSE 18:11:47 48° E 18:14:52 27° NNE
Cosmos 2219 3.1 18:06:26 10° NNW 18:12:13 83° ENE 18:17:57 10° SSE
GEOS 3 Rocket 3.8 18:09:53 31° NE 18:12:31 73° NW 18:17:52 10° SW
BREEZE-M DEB (TANK) 3.4 18:11:15 10° SW 18:12:05 23° SW 18:12:05 23° SW
Resurs 1-3 3.4 18:08:57 10° SSE 18:13:15 80° ENE 18:17:34 10° NNW
SL-16 R/B 4.0 18:10:55 10° N 18:16:27 35° WNW 18:21:56 10° WSW
Lacrosse 4 Rocket 3.8 18:16:47 10° NW 18:18:15 12° NNW 18:19:18 11° N
Cosmos 1980 Rocket 2.1 18:12:48 10° SSW 18:18:22 63° ESE 18:19:44 48° ENE
Cosmos 1844 Rocket 3.2 18:14:05 10° NNW 18:18:59 38° NE 18:18:59 38° NE
Cosmos 1354 Rocket 4.4 18:14:31 10° SW 18:19:44 61° WNW 18:22:53 24° NNE
CENTAUR R/B 3.7 18:14:33 10° WNW 18:20:35 37° N 18:24:02 25° NE
Meteor 2-20 4.4 18:16:03 10° S 18:22:14 88° WNW 18:28:26 10° N
USA 281 4.2 18:22:44 26° NNE 18:22:44 26° NNE 18:27:30 10° NNW
NOSS 2-3 (C) 3.8 18:21:25 10° SW 18:23:55 44° SSW 18:23:55 44° SSW
Spot 4 Rocket 4.0 18:19:58 10° SSE 18:25:04 79° WSW 18:30:14 10° NNW
Cosmos 1745 Rocket 4.2 18:19:27 10° N 18:24:48 45° NE 18:24:48 45° NE
Cosmos 1726 Rocket 4.3 18:20:56 10° SSW 18:25:30 57° WNW 18:28:51 18° N
Cosmos 2263 Rocket 2.8 18:21:15 10° NW 18:26:49 58° WSW 18:32:22 10° S
Cosmos 1898 Rocket 3.5 18:25:30 10° S 18:30:11 58° SE 18:30:11 58° SE
Cosmos 1244 Rocket 4.4 18:24:49 10° N 18:31:09 89° WSW 18:37:22 10° S
Cosmos 2369 4.1 18:25:57 10° S 18:30:42 45° SE 18:30:42 45° SE
Cosmos 2112 Rocket 4.5 18:26:48 10° NNW 18:30:44 43° NNE 18:30:44 43° NNE
Cosmos 1461 3.9 18:28:43 10° WSW 18:32:21 36° NW 18:32:37 35° NNW
Cosmos 44 Rocket 3.9 18:27:55 10° NW 18:32:08 44° NNE 18:32:08 44° NNE
YAOGAN 1 3.0 18:32:42 10° S 18:36:55 60° W 18:41:09 10° NNW
SKYMED 2 3.8 18:36:02 52° NNW 18:36:55 68° WNW 18:41:14 10° SSW
Cosmos-2242 3.4 18:33:15 10° S 18:36:34 55° SSW 18:36:34 55° SSW
Meteor 1-17 Rocket 4.5 18:32:00 10° N 18:37:37 79° ENE 18:40:26 30° SSE
USA 238 DEB 3.4 18:33:50 10° SW 18:39:58 75° SE 18:41:14 58° ENE
USA 238 3.4 18:33:56 10° SSW 18:40:05 74° SE 18:41:19 58° ENE
Cosmos 923 Rocket 3.8 18:35:40 10° NNW 18:40:55 89° ENE 18:41:32 70° SSE
USA 215 3.3 18:41:10 53° ENE 18:42:32 65° NNE 18:49:02 10° WNW
Cosmos 2227 Rocket 4.2 18:38:16 10° NW 18:42:58 28° WSW 18:47:39 10° SSW
Cosmos 372 Rocket 3.8 18:37:52 10° SSW 18:43:02 88° ESE 18:43:10 85° NE
Cosmos 1943 Rocket 4.3 18:41:16 10° N 18:42:28 12° N 18:42:28 12° N
Meteor 2-20 Rocket 4.4 18:37:43 10° S 18:43:57 85° W 18:48:13 21° N
SL-08 R/B 4.5 18:39:27 10° N 18:45:50 84° W 18:52:10 10° S
Cosmos 1937 Rocket 4.3 18:44:13 10° S 18:47:30 38° S 18:47:30 38° S
BREEZE-M DEB (TANK) 4.4 18:46:50 10° WNW 18:51:02 84° SSW 18:54:54 42° ESE
Cosmos 1386 Rocket 4.3 18:44:57 10° N 18:51:03 82° ENE 18:57:14 10° SSE
Cosmos 1697 Rocket 3.7 18:53:45 10° WSW 18:59:02 41° NW 19:00:59 31° N
Aureole 1 Rocket 3.7 18:55:02 10° SW 18:59:40 65° WNW 19:00:03 63° NW
Resurs 01 Rocket 4.2 19:07:10 12° NNW 19:07:10 12° NNW 19:07:33 10° NNW
Cosmos 2278 Rocket 4.4 19:00:34 10° NNW 19:01:48 13° N 19:01:48 13° N
Cosmos 1680 Rocket 4.2 19:08:06 10° NNW 19:12:02 50° NW 19:12:02 50° NW
COSMOS 2455 4.4 19:10:28 10° SSW 19:12:49 24° S 19:12:49 24° S
NOSS 3-2 (C) 4.4 19:25:36 10° W 19:30:40 37° NNW 19:30:40 37° NNW
Cosmos 1980 Rocket 3.9 19:57:42 10° WSW 20:01:31 29° WNW 20:01:31 29° WNW
Cosmos 1844 Rocket 4.5 19:57:58 10° NW 20:00:39 27° NW 20:00:39 27° NW
CENTAUR R/B 4.1 20:06:22 10° NW 20:11:08 34° NNW 20:11:08 34° NNW
